Miscellaneous Local Product
Issued by NWS Hastings, NE

Home | Current Version | Previous Version | Graphics & Text | Print | Product List | Glossary On
Versions: 1 2 3 4 5 6 7 8 9 10 11 12 13 14 15 16 17 18 19 20 21 22 23 24 25 26 27 28 29 30 31 32 33 34 35 36 37 38 39 40 41 42 43 44 45 46 47 48 49 50
404
AXUS43 KGID 270002
MISGRI

GID CWA HOURLY WEATHER ROUNDUP
NATIONAL WEATHER SERVICE HASTINGS NE
700 PM CDT FRI AUG 26 2016

NOTE: "FAIR" INDICATES FEW OR NO CLOUDS BELOW 12,000 FEET WITH NO
SIGNIFICANT WEATHER AND/OR OBSTRUCTIONS TO VISIBILITY.

...SOUTH CENTRAL NEBRASKA...

CITY           SKY/WX    TMP DP  RH WIND       PRES   REMARKS
GRAND ISLAND   CLOUDY    67  62  84 E7        30.05S
HASTINGS       CLOUDY    67  63  87 E6        30.05S
KEARNEY        SUNNY     70  59  68 NE6       30.02F
ORD            CLOUDY    70  54  56 E5        30.04S
YORK           CLOUDY    64  64 100 CALM      30.04F FOG
AURORA         CLOUDY    64  64 100 CALM      30.05S FOG
LEXINGTON      LGT RAIN  67  62  84 N5        30.04S
HOLDREGE       SUNNY     70  58  65 E6        30.02F
HEBRON         PTSUNNY   72  67  84 N5        30.01F

...NEBRASKA PANHANDLE...

CITY           SKY/WX    TMP DP  RH WIND       PRES   REMARKS
CHADRON        CLOUDY    74  53  48 S18       29.99S
ALLIANCE       MOSUNNY   65  53  65 SE13      30.05F
SCOTTSBLUFF    CLOUDY    67  52  58 SE16      30.05R
SIDNEY         CLOUDY    64  56  75 S12       30.11S

...WESTERN AND NORTH CENTRAL NEBRASKA...

CITY           SKY/WX    TMP DP  RH WIND       PRES   REMARKS
VALENTINE      CLOUDY    63  57  81 SE7       30.04S
AINSWORTH      CLOUDY    65  58  80 CALM      30.05F
ONEILL         CLOUDY    71  56  60 E6        30.07S
BROKEN BOW     CLOUDY    67  58  72 E5        30.05F
IMPERIAL       CLOUDY    60  57  89 E8        30.05S
NORTH PLATTE   CLOUDY    62  60  93 E3        30.06F
MCCOOK         CLOUDY    67  62  84 N13       30.03R

...EASTERN NEBRASKA...

CITY           SKY/WX    TMP DP  RH WIND       PRES   REMARKS
NORFOLK        CLOUDY    68  59  73 E9        30.04F
SO SIOUX CITY  CLOUDY    72  62  71 E7        30.05F
TEKAMAH        CLOUDY    66  62  87 NE7       30.05F
COLUMBUS       CLOUDY    64  55  72 E7        30.05F
ALBION         CLOUDY    68  59  73 E9        30.05S
OMAHA EPPLEY   CLOUDY    69  63  81 E8        30.03F
OFFUTT AFB     CLOUDY    69  65  86 NE8       30.03S
MILLARD        PTSUNNY   70  63  79 E6        30.02F
LINCOLN        CLOUDY    70  65  84 NE10      30.03S
NEBRASKA CITY  CLOUDY    67  67 100 NE6       30.02S
BEATRICE       CLOUDY    72  66  82 E7        30.01S
FALLS CITY     RAIN      71  71 100 E8        29.99F FOG

...NORTHERN KANSAS...

CITY           SKY/WX    TMP DP  RH WIND       PRES   REMARKS
GOODLAND       CLOUDY    69  62  78 SE6       30.03R
HILL CITY      SUNNY     74  63  68 E10       30.00F
NORTON         PTCLDY    73  55  53 E6        30.01R
SMITH CENTER   PTSUNNY   72  63  73 E5        30.01F
BELOIT         CLOUDY    70  66  88 CALM      30.00F
HAYS           PTSUNNY   75  59  57 CALM      30.00F
RUSSELL        PTSUNNY   75  66  73 NE5       30.00S
CONCORDIA      CLOUDY    74  64  71 CALM      30.00F
SALINA         MOSUNNY   80  67  64 CALM      29.99F
TOPEKA           N/A     78  72  81 MISG      29.98R



USA.gov is the U.S. government's official web portal to all federal, state and local government web resources and services.